sat.trackr.live / text

‹ back to catalog

STARLINK-4186

NORAD 52880 · 2022-062BC

PAYLOAD ACTIVE UNKNOWN

§ Identity

Operator
Country
US
Launch date
2022-06-17
Launch site
AFETR
Launch vehicle
Mass (kg)
RCS (m²)

Purposes: comms

External: N2YO · Heavens-Above · Gunter

§ Orbital elements

Epoch: 2026-09-19T11:43:30.733824Z

Period
93.85 min
Inclination
53.1591°
Eccentricity
0.0001098
Mean motion
15.34400134 rev/d
Perigee alt
462.0 km
Apogee alt
463.5 km
Semi-major
6,840.8 km
B*
-4.3551e-5
RAAN
208.2212°
Arg perigee
90.6570°
Mean anomaly
269.4558°
Rev number
23,554

§ Raw data

STARLINK-41861 52880U 22062BC  26262.48855016 -.00001847  00000+0 -43551-4 0  99932 52880  53.1591 208.2212 0001098  90.6570 269.4558 15.34400134235544

JSON: /api/v1/satellites/52880 · /tle

For live sub-satellite position, see the globe view (requires WebGL).

§ Visibility from observer

Set your observer location to see the next 7 days of passes ≥ 10°. The values pass through the URL so the page stays shareable.

No JS? Fill the form by hand. The geolocation button needs JavaScript.